Starlink 5261

operational
NORAD ID: 55276 Int'l Des: 2023-010 Owner: SPXS Country: US Constellation: starlink
LEOCIRCULAR

Starlink 5261について

説明を読み込み中...

リアルタイム位置

3D地球を読み込み中...

次回通過

高度履歴

Altitude vs Time

uPlot chart will show altitude changes over time

軌道要素

1 55276U 23010H 25352.33335648 -.00041523 00000-0 -34914-2 0 9993
2 55276 70.0004 229.6919 0002942 273.8090 315.7722 14.98345724 5674
Epoch: Dec 18, 2025 • Age: 17 hours

現在のステータス

高度 585.5 km
速度 7.57 km/s
衛星直下点 68.74°N, 166.05°W
打ち上げ日 Jan 19, 2023
運用期間 2.9 years
タイプ internet

技術仕様

分類 Payload
質量 305.00 kg
乾燥質量 290.00 kg
総質量 305.00 kg
長さ 0.20 m
直径 2.80 m
スパン 9.00 m
形状 Box + pan
製造者 SPXS
バスタイプ Starlink
フェーズステータス In Orbit
所有者/国 SPXS/US

大規模コンステレーション

Loading constellations...